• In Hungary
  • List of Countries
  • For 7 days
  • Water Temperature
  • Satellite Maps
  • Weather Map
  • News
  • Weather Widgets
  • user-avatar
    Login

    Hourly Weather Albuquerque

    Today, 17 December, Sunday

    Time Temperature Precipitation Wind Pressure Humidity
    00:00 +3°C° 0 mm 2 mps 627 mmHg 39%
    01:00 +3°C° 0 mm 2 mps 628 mmHg 38%
    02:00 +4°C° 0 mm 2 mps 628 mmHg 37%
    03:00 +3°C° 0 mm 2 mps 629 mmHg 37%
    04:00 +4°C° 0 mm 1 mps 629 mmHg 37%
    05:00 +4°C° 0 mm 1 mps 629 mmHg 36%
    06:00 +4°C° 0 mm 1 mps 629 mmHg 37%
    07:00 +4°C° 0 mm 1 mps 629 mmHg 37%
    08:00 +4°C° 0 mm 1 mps 629 mmHg 38%
    09:00 +6°C° 0 mm 1 mps 630 mmHg 34%
    10:00 +7°C° 0 mm 2 mps 631 mmHg 29%
    11:00 +9°C° 0 mm 3 mps 632 mmHg 25%
    12:00 +9°C° 0 mm 3 mps 631 mmHg 27%
    13:00 +9°C° 0 mm 3 mps 631 mmHg 30%
    14:00 +10°C° 0 mm 3 mps 631 mmHg 32%
    15:00 +9°C° 0 mm 3 mps 631 mmHg 38%
    16:00 +8°C° 0 mm 3 mps 631 mmHg 45%
    17:00 +7°C° 0 mm 3 mps 631 mmHg 52%
    18:00 +6°C° 0 mm 2 mps 631 mmHg 58%
    19:00 +5°C° 0 mm 2 mps 631 mmHg 64%
    20:00 +5°C° 0 mm 1 mps 632 mmHg 71%
    21:00 +5°C° 0 mm 1 mps 632 mmHg 73%
    22:00 +5°C° 0 mm 1 mps 632 mmHg 75%
    23:00 +4°C° 0 mm 1 mps 632 mmHg 77%

    Tomorrow, 18 December, Monday

    Time Temperature Precipitation Wind Pressure Humidity
    00:00 +4°C° 0 mm 1 mps 632 mmHg 76%
    01:00 +4°C° 0 mm 1 mps 632 mmHg 76%
    02:00 +4°C° 0 mm 1 mps 632 mmHg 75%
    03:00 +4°C° 0 mm 1 mps 632 mmHg 72%
    04:00 +3°C° 0 mm 2 mps 632 mmHg 69%
    05:00 +3°C° 0 mm 2 mps 632 mmHg 66%
    06:00 +5°C° 0 mm 1 mps 632 mmHg 64%
    07:00 +5°C° 0 mm 1 mps 633 mmHg 62%
    08:00 +5°C° 0 mm 1 mps 633 mmHg 60%
    09:00 +7°C° 0 mm 1 mps 634 mmHg 54%
    10:00 +8°C° 0 mm 1 mps 634 mmHg 49%
    11:00 +8°C° 0 mm 2 mps 634 mmHg 44%
    12:00 +9°C° 0 mm 2 mps 634 mmHg 43%
    13:00 +10°C° 0 mm 2 mps 634 mmHg 42%
    14:00 +10°C° 0 mm 2 mps 633 mmHg 41%
    15:00 +9°C° 0 mm 2 mps 633 mmHg 45%
    16:00 +8°C° 0 mm 2 mps 633 mmHg 48%
    17:00 +8°C° 0 mm 2 mps 633 mmHg 52%
    18:00 +7°C° 0 mm 2 mps 633 mmHg 56%
    19:00 +6°C° 0 mm 2 mps 633 mmHg 61%
    20:00 +5°C° 0 mm 2 mps 634 mmHg 65%
    21:00 +5°C° 0 mm 2 mps 634 mmHg 68%
    22:00 +4°C° 0 mm 2 mps 634 mmHg 70%
    23:00 +4°C° 0 mm 2 mps 634 mmHg 73%

    Day after tomorrow, 19 December, Tuesday

    Time Temperature Precipitation Wind Pressure Humidity
    00:00 +3°C° 0 mm 2 mps 634 mmHg 74%
    01:00 +3°C° 0 mm 2 mps 634 mmHg 75%
    02:00 +3°C° 0 mm 1 mps 634 mmHg 76%
    03:00 +3°C° 0 mm 1 mps 633 mmHg 74%
    04:00 +2°C° 0 mm 2 mps 633 mmHg 72%
    05:00 +1°C° 0 mm 2 mps 633 mmHg 71%
    06:00 +2°C° 0 mm 2 mps 634 mmHg 66%
    07:00 +2°C° 0 mm 2 mps 634 mmHg 61%
    08:00 +2°C° 0 mm 2 mps 634 mmHg 57%
    09:00 +4°C° 0 mm 2 mps 635 mmHg 47%
    10:00 +5°C° 0 mm 3 mps 635 mmHg 37%
    11:00 +8°C° 0 mm 3 mps 635 mmHg 27%
    12:00 +9°C° 0 mm 3 mps 635 mmHg 26%
    13:00 +10°C° 0 mm 3 mps 635 mmHg 24%
    14:00 +11°C° 0 mm 4 mps 635 mmHg 22%
    15:00 +9°C° 0 mm 3 mps 634 mmHg 25%
    16:00 +8°C° 0 mm 3 mps 634 mmHg 28%
    17:00 +7°C° 0 mm 2 mps 634 mmHg 31%
    18:00 +6°C° 0 mm 2 mps 634 mmHg 34%
    19:00 +5°C° 0 mm 2 mps 635 mmHg 36%
    20:00 +5°C° 0 mm 2 mps 635 mmHg 38%
    21:00 +5°C° 0 mm 1 mps 635 mmHg 40%
    22:00 +5°C° 0 mm 1 mps 635 mmHg 42%
    23:00 +4°C° 0 mm 1 mps 635 mmHg 44%

    20 December, Wednesday

    Time Temperature Precipitation Wind Pressure Humidity
    00:00 +4°C° 0 mm 1 mps 635 mmHg 44%
    01:00 +4°C° 0 mm 1 mps 634 mmHg 45%
    02:00 +3°C° 0 mm 2 mps 634 mmHg 46%
    03:00 +2°C° 0 mm 2 mps 634 mmHg 47%
    04:00 +3°C° 0 mm 1 mps 633 mmHg 47%
    05:00 +3°C° 0 mm 1 mps 633 mmHg 48%
    06:00 +3°C° 0 mm 1 mps 633 mmHg 47%
    07:00 +4°C° 0 mm 1 mps 634 mmHg 46%
    08:00 +4°C° 0 mm 1 mps 634 mmHg 45%
    09:00 +6°C° 0 mm 2 mps 634 mmHg 39%
    10:00 +8°C° 0 mm 2 mps 634 mmHg 34%
    11:00 +10°C° 0 mm 2 mps 635 mmHg 28%
    12:00 +11°C° 0 mm 3 mps 634 mmHg 27%
    13:00 +12°C° 0 mm 3 mps 633 mmHg 26%
    14:00 +12°C° 0 mm 3 mps 632 mmHg 24%
    15:00 +11°C° 0 mm 3 mps 632 mmHg 28%
    16:00 +10°C° 0 mm 3 mps 631 mmHg 31%
    17:00 +8°C° 0 mm 2 mps 630 mmHg 35%
    18:00 +8°C° 0 mm 2 mps 630 mmHg 37%
    19:00 +7°C° 0 mm 2 mps 630 mmHg 39%
    20:00 +7°C° 0 mm 3 mps 630 mmHg 41%
    21:00 +5°C° 0 mm 3 mps 630 mmHg 44%
    22:00 +5°C° 0 mm 3 mps 629 mmHg 47%
    23:00 +4°C° 0 mm 3 mps 629 mmHg 50%

    21 December, Thursday

    Time Temperature Precipitation Wind Pressure Humidity
    00:00 +5°C° 0 mm 2 mps 628 mmHg 51%
    01:00 +5°C° 0 mm 2 mps 628 mmHg 52%
    02:00 +5°C° 0 mm 2 mps 628 mmHg 53%
    03:00 +5°C° 0 mm 2 mps 627 mmHg 53%
    04:00 +4°C° 0 mm 2 mps 627 mmHg 53%
    05:00 +4°C° 0 mm 2 mps 627 mmHg 53%
    06:00 +4°C° 0 mm 2 mps 627 mmHg 52%
    07:00 +4°C° 0 mm 2 mps 627 mmHg 51%
    08:00 +4°C° 0 mm 2 mps 627 mmHg 50%
    09:00 +5°C° 0 mm 4 mps 627 mmHg 44%
    10:00 +7°C° 0 mm 5 mps 627 mmHg 37%
    11:00 +9°C° 0 mm 7 mps 627 mmHg 30%
    12:00 +9°C° 0 mm 8 mps 627 mmHg 30%
    13:00 +8°C° 0 mm 9 mps 626 mmHg 29%
    14:00 +8°C° 0 mm 10 mps 626 mmHg 29%
    15:00 +6°C° 0 mm 9 mps 626 mmHg 30%
    16:00 +5°C° 0 mm 8 mps 626 mmHg 32%
    17:00 +3°C° 0 mm 7 mps 626 mmHg 33%
    18:00 +2°C° 0 mm 6 mps 627 mmHg 35%
    19:00 +1°C° 0 mm 5 mps 627 mmHg 37%
    20:00 0°C° 0 mm 4 mps 628 mmHg 39%
    21:00 -1°C° 0 mm 4 mps 628 mmHg 45%
    22:00 -1°C° 0 mm 3 mps 629 mmHg 50%
    23:00 -1°C° 0 mm 2 mps 629 mmHg 55%

    22 December, Friday

    Time Temperature Precipitation Wind Pressure Humidity
    00:00 -1°C° 0 mm 2 mps 630 mmHg 60%
    01:00 -2°C° 0 mm 2 mps 630 mmHg 64%
    02:00 -2°C° 0 mm 2 mps 631 mmHg 69%
    03:00 -2°C° 0.1 mm 2 mps 631 mmHg 70%
    04:00 -2°C° 0.1 mm 2 mps 632 mmHg 70%
    05:00 0°C° 0.1 mm 1 mps 633 mmHg 71%
    06:00 0°C° 0 mm 1 mps 633 mmHg 69%
    07:00 0°C° 0 mm 1 mps 634 mmHg 68%
    08:00 0°C° 0 mm 1 mps 635 mmHg 67%
    09:00 +1°C° 0 mm 2 mps 635 mmHg 59%
    10:00 +2°C° 0 mm 2 mps 636 mmHg 52%
    11:00 +2°C° 0 mm 3 mps 636 mmHg 45%
    12:00 +3°C° 0 mm 3 mps 635 mmHg 42%
    13:00 +4°C° 0 mm 3 mps 635 mmHg 39%
    14:00 +5°C° 0 mm 4 mps 635 mmHg 36%
    15:00 +4°C° 0 mm 3 mps 635 mmHg 37%
    16:00 +3°C° 0 mm 3 mps 635 mmHg 39%
    17:00 +2°C° 0 mm 3 mps 635 mmHg 41%
    18:00 +2°C° 0 mm 2 mps 635 mmHg 42%
    19:00 +1°C° 0 mm 2 mps 635 mmHg 44%
    20:00 +1°C° 0 mm 2 mps 636 mmHg 45%
    21:00 -1°C° 0 mm 2 mps 636 mmHg 44%
    22:00 -1°C° 0 mm 2 mps 636 mmHg 44%
    23:00 -1°C° 0 mm 2 mps 636 mmHg 44%
    Show more